Rexburg, ID

4:37 AM MDT on May 28, 2018 (GMT -0600)
Rexburg-Madison County

Weather History for KRXE - December, 2012

Change the Weather History Date:

Wednesday, December 19, 2012

  Actual Average Record
Temperature  
Mean Temperature 13 °F 20 °F  
Max Temperature 21 °F 28 °F 39 °F (2003)
Min Temperature 4 °F 12 °F -11 °F (2016)
Degree Days  
Heating Degree Days 52 45  
Month to date heating degree days 647 830  
Since 1 July heating degree days 2334 2842  
Cooling Degree Days 0 0  
Month to date cooling degree days 0 0  
Year to date cooling degree days 419 208  
Moisture  
Dew Point 8 °F    
Average Humidity 75    
Maximum Humidity 88    
Minimum Humidity 62    
Precipitation  
Precipitation T in 0.05 in 0.54 in (2010)
Month to date precipitation 0.79 0.54  
Year to date precipitation 9.84 12.57  
Sea Level Pressure  
Sea Level Pressure 30.25 in    
Wind  
Wind Speed 6 mph (South)    
Max Wind Speed 15 mph    
Max Gust Speed 18 mph    
Visibility 9 miles    
Events Snow    
T = Trace of Precipitation, MM = Missing Value Source: NWS Daily Summary

Daily Weather History Graph

Daily Weather History Graph

Search for Another Location

Airport or City:

Astronomy

Dec. 19, 2012 Rise Set
Actual Time 7:57 AM MST 4:51 PM MST
Civil Twilight 7:24 AM MST 5:24 PM MST
Nautical Twilight 6:47 AM MST 6:01 PM MST
Astronomical Twilight 6:12 AM MST 6:36 PM MST
Moon 11:55 AM MST (12/19) No Moon Set
Length of Visible Light 10h 00m
Length of Day
8h 54m
Waxing Crescent, 45% of the Moon is Illuminated
Dec 19
Waxing Crescent
Dec 19
First Quarter
Dec 28
Full
Jan 4
Last Quarter
Jan 11
New

Hourly Weather History & Observations

Time (MST) Temp. Windchill Dew Point Humidity Pressure Visibility Wind Dir Wind Speed Gust Speed Precip Events Conditions
12:13 AM 6.8 °F -0.1 °F 3.2 °F 85% 29.87 in 10.0 mi NNE 3.5 mph - N/A   Partly Cloudy
12:53 AM 6.1 °F -0.9 °F 1.9 °F 83% 30.05 in 10.0 mi NE 3.5 mph - N/A   Clear
1:12 AM 6.8 °F -2.0 °F 1.4 °F 79% 29.88 in 10.0 mi ENE 4.6 mph - N/A   Partly Cloudy
1:53 AM 6.1 °F -0.9 °F 1.9 °F 83% 30.06 in 10.0 mi NNE 3.5 mph - N/A   Clear
2:53 AM 5.0 °F - 1.0 °F 84% 30.09 in 10.0 mi Calm Calm - N/A   Clear
3:53 AM 3.9 °F -5.3 °F -0.0 °F 84% 30.10 in 10.0 mi NNE 4.6 mph - N/A   Clear
4:53 AM 3.9 °F -3.4 °F -0.0 °F 84% 30.14 in 10.0 mi NNE 3.5 mph - N/A   Clear
5:11 AM 5.0 °F - 1.4 °F 85% 29.96 in 10.0 mi Calm Calm - N/A   Mostly Cloudy
5:53 AM 7.0 °F 0.1 °F 3.0 °F 84% 30.17 in 10.0 mi ENE 3.5 mph - N/A   Overcast
6:53 AM 10.0 °F - 6.1 °F 84% 30.21 in 10.0 mi Calm Calm - N/A   Overcast
7:53 AM 12.9 °F - 9.0 °F 84% 30.22 in 10.0 mi Calm Calm - N/A   Overcast
8:53 AM 12.9 °F 5.2 °F 9.0 °F 84% 30.28 in 10.0 mi South 4.6 mph - N/A   Overcast
9:53 AM 14.0 °F 2.9 °F 9.0 °F 80% 30.31 in 10.0 mi South 8.1 mph - N/A   Overcast
10:53 AM 14.0 °F 1.2 °F 9.0 °F 80% 30.35 in 7.0 mi South 10.4 mph - 0.00 in Snow Light Snow
11:00 AM 14.0 °F 2.0 °F 8.6 °F 79% 30.13 in 5.0 mi South 9.2 mph - 0.00 in Snow Light Snow
11:10 AM 15.8 °F 5.1 °F 10.4 °F 79% 30.13 in 1.8 mi South 8.1 mph - 0.00 in Snow Light Snow
11:20 AM 15.8 °F 4.2 °F 10.4 °F 79% 30.14 in 3.0 mi South 9.2 mph - 0.00 in Snow Light Snow
11:53 AM 16.0 °F 2.9 °F 10.0 °F 77% 30.36 in 9.0 mi SW 11.5 mph 18.4 mph 0.00 in   Overcast
12:53 PM 17.1 °F 8.7 °F 10.9 °F 77% 30.35 in 10.0 mi South 5.8 mph - N/A   Overcast
1:53 PM 19.0 °F 8.2 °F 10.0 °F 68% 30.35 in 10.0 mi SSW 9.2 mph - 0.00 in   Mostly Cloudy
2:53 PM 19.9 °F 9.3 °F 10.0 °F 65% 30.36 in 10.0 mi SW 9.2 mph 18.4 mph N/A   Mostly Cloudy
3:25 PM 19.4 °F 7.9 °F 8.6 °F 63% 30.18 in 10.0 mi SW 10.4 mph - N/A   Overcast
3:53 PM 19.9 °F 9.3 °F 9.0 °F 62% 30.40 in 10.0 mi SSW 9.2 mph - N/A   Overcast
4:53 PM 19.9 °F 7.3 °F 10.0 °F 65% 30.42 in 10.0 mi SSW 12.7 mph 18.4 mph N/A   Mostly Cloudy
5:53 PM 19.0 °F 10.0 °F 10.9 °F 71% 30.43 in 10.0 mi South 6.9 mph - N/A   Overcast
6:10 PM 19.4 °F 7.9 °F 10.4 °F 68% 30.23 in 10.0 mi SSW 10.4 mph - N/A   Mostly Cloudy
6:53 PM 19.0 °F 11.1 °F 12.0 °F 74% 30.43 in 10.0 mi SSW 5.8 mph - N/A   Mostly Cloudy
7:00 PM 17.6 °F 8.2 °F 12.2 °F 79% 30.24 in 10.0 mi SSW 6.9 mph - N/A   Scattered Clouds
7:15 PM 19.4 °F 9.5 °F 12.2 °F 74% 30.25 in 10.0 mi SSW 8.1 mph - N/A   Mostly Cloudy
7:53 PM 19.9 °F 12.1 °F 14.0 °F 78% 30.44 in 10.0 mi SSW 5.8 mph - N/A   Overcast
8:53 PM 19.0 °F 12.3 °F 10.9 °F 71% 30.47 in 10.0 mi SSW 4.6 mph - N/A   Overcast
9:53 PM 19.9 °F 11.1 °F 10.9 °F 68% 30.47 in 10.0 mi South 6.9 mph - N/A   Overcast
10:15 PM 19.4 °F 8.6 °F 10.4 °F 68% 30.29 in 10.0 mi South 9.2 mph - N/A   Overcast
10:53 PM 19.9 °F 9.3 °F 10.0 °F 65% 30.49 in 10.0 mi South 9.2 mph - N/A   Overcast
11:53 PM 19.9 °F 9.3 °F 10.0 °F 65% 30.49 in 10.0 mi South 9.2 mph - N/A   Overcast